Location: Nairn
(57.5833°N, 3.8667°W)
Time: 04:40:00
(UTC+00:00)

Explorer 7 - Pass Details

Date: 26 November 2020
Orbit: 484 x 678 km, 50.3° (Epoch: 17 January)

Event Time Altitude Azimuth Distance (km) Brightness Sun altitude
Exits shadow 04:29:06 19° 132° (SE) 1,354 9.2 -30.1°
Drops below altitude 10° 04:30:54 10° 109° (ESE) 1,811 10.2 -29.9°
Sets 04:33:23 0° 95° (E) 2,669 11.5 -29.5°
